When you browse on this site, cookies collect data to enhance your experience and personalize the content and advertising you see.
Visit our Privacy Policy to learn more. By continuing to use the site, you agree to this use of cookies and data.
  • în România
  • Lista ţărilor
  • Pe 7 zile
  • Temperatura apei
  • Hartă satelitară
  • Meteo pe hartă
  • Widget-uri
  • user-avatar
    Intrare

    Meteo pe oră la Ajuchitlan

    Astăzi, 22 Februarie, Vineri

    Timp Temperatura Precipitaţii Vânt Presiune Umiditate
    00:00 +26°C° 0 mm 1 m/s 729 mmHg 44%
    01:00 +26°C° 0 mm 1 m/s 729 mmHg 46%
    02:00 +23°C° 0 mm 0 m/s 729 mmHg 47%
    03:00 +23°C° 0 mm 0 m/s 729 mmHg 48%
    04:00 +22°C° 0 mm 0 m/s 729 mmHg 49%
    05:00 +22°C° 0 mm 0 m/s 729 mmHg 50%
    06:00 +23°C° 0 mm 0 m/s 729 mmHg 47%
    07:00 +25°C° 0 mm 0 m/s 730 mmHg 45%
    08:00 +26°C° 0 mm 0 m/s 731 mmHg 42%
    09:00 +29°C° 0 mm 0 m/s 731 mmHg 36%
    10:00 +33°C° 0 mm 1 m/s 731 mmHg 30%
    11:00 +36°C° 0 mm 1 m/s 731 mmHg 24%
    12:00 +37°C° 0 mm 1 m/s 730 mmHg 22%
    13:00 +38°C° 0 mm 2 m/s 729 mmHg 20%
    14:00 +39°C° 0 mm 2 m/s 729 mmHg 18%
    15:00 +38°C° 0 mm 2 m/s 729 mmHg 19%
    16:00 +36°C° 0 mm 1 m/s 728 mmHg 20%
    17:00 +35°C° 0 mm 1 m/s 728 mmHg 21%
    18:00 +33°C° 0 mm 1 m/s 729 mmHg 24%
    19:00 +31°C° 0 mm 1 m/s 730 mmHg 27%
    20:00 +29°C° 0 mm 1 m/s 730 mmHg 30%
    21:00 +28°C° 0 mm 1 m/s 730 mmHg 33%
    22:00 +28°C° 0 mm 1 m/s 731 mmHg 37%
    23:00 +27°C° 0 mm 1 m/s 731 mmHg 40%

    Mâine, 23 Februarie, Sâmbătă

    Timp Temperatura Precipitaţii Vânt Presiune Umiditate
    00:00 +27°C° 0 mm 1 m/s 731 mmHg 40%
    01:00 +27°C° 0 mm 1 m/s 730 mmHg 41%
    02:00 +25°C° 0 mm 0 m/s 730 mmHg 41%
    03:00 +26°C° 0 mm 1 m/s 730 mmHg 42%
    04:00 +25°C° 0 mm 1 m/s 730 mmHg 43%
    05:00 +25°C° 0 mm 1 m/s 730 mmHg 44%
    06:00 +24°C° 0 mm 0 m/s 730 mmHg 41%
    07:00 +26°C° 0 mm 0 m/s 731 mmHg 38%
    08:00 +28°C° 0 mm 0 m/s 731 mmHg 34%
    09:00 +32°C° 0 mm 1 m/s 731 mmHg 31%
    10:00 +34°C° 0 mm 1 m/s 731 mmHg 27%
    11:00 +37°C° 0 mm 1 m/s 731 mmHg 23%
    12:00 +38°C° 0 mm 2 m/s 730 mmHg 22%
    13:00 +39°C° 0 mm 2 m/s 729 mmHg 21%
    14:00 +39°C° 0 mm 2 m/s 728 mmHg 19%
    15:00 +38°C° 0 mm 2 m/s 728 mmHg 21%
    16:00 +37°C° 0 mm 2 m/s 728 mmHg 22%
    17:00 +35°C° 0 mm 1 m/s 728 mmHg 23%
    18:00 +34°C° 0 mm 1 m/s 729 mmHg 26%
    19:00 +32°C° 0 mm 1 m/s 729 mmHg 28%
    20:00 +30°C° 0 mm 1 m/s 730 mmHg 31%
    21:00 +29°C° 0 mm 1 m/s 730 mmHg 33%
    22:00 +29°C° 0 mm 1 m/s 730 mmHg 35%
    23:00 +28°C° 0 mm 1 m/s 731 mmHg 38%

    Poimâine, 24 Februarie, Duminică

    Timp Temperatura Precipitaţii Vânt Presiune Umiditate
    00:00 +28°C° 0 mm 1 m/s 730 mmHg 39%
    01:00 +27°C° 0 mm 1 m/s 730 mmHg 41%
    02:00 +27°C° 0 mm 1 m/s 730 mmHg 43%
    03:00 +26°C° 0 mm 1 m/s 730 mmHg 44%
    04:00 +26°C° 0 mm 1 m/s 730 mmHg 46%
    05:00 +25°C° 0 mm 1 m/s 729 mmHg 48%
    06:00 +25°C° 0 mm 0 m/s 730 mmHg 43%
    07:00 +27°C° 0 mm 0 m/s 731 mmHg 39%
    08:00 +29°C° 0 mm 0 m/s 731 mmHg 34%
    09:00 +31°C° 0 mm 0 m/s 731 mmHg 30%
    10:00 +35°C° 0 mm 1 m/s 731 mmHg 26%
    11:00 +39°C° 0 mm 1 m/s 731 mmHg 21%
    12:00 +40°C° 0 mm 1 m/s 730 mmHg 20%
    13:00 +40°C° 0 mm 1 m/s 729 mmHg 18%
    14:00 +41°C° 0 mm 1 m/s 728 mmHg 17%
    15:00 +40°C° 0 mm 1 m/s 728 mmHg 18%
    16:00 +39°C° 0 mm 1 m/s 728 mmHg 19%
    17:00 +37°C° 0 mm 1 m/s 728 mmHg 20%
    18:00 +34°C° 0 mm 1 m/s 728 mmHg 24%
    19:00 +32°C° 0 mm 1 m/s 729 mmHg 28%
    20:00 +30°C° 0 mm 1 m/s 729 mmHg 32%
    21:00 +29°C° 0 mm 1 m/s 730 mmHg 35%
    22:00 +29°C° 0 mm 1 m/s 730 mmHg 38%
    23:00 +28°C° 0 mm 1 m/s 730 mmHg 41%

    25 Februarie, Luni

    Timp Temperatura Precipitaţii Vânt Presiune Umiditate
    00:00 +28°C° 0 mm 1 m/s 730 mmHg 42%
    01:00 +27°C° 0 mm 1 m/s 730 mmHg 43%
    02:00 +27°C° 0 mm 1 m/s 729 mmHg 44%
    03:00 +26°C° 0 mm 1 m/s 729 mmHg 44%
    04:00 +26°C° 0 mm 1 m/s 729 mmHg 44%
    05:00 +26°C° 0 mm 1 m/s 729 mmHg 44%
    06:00 +25°C° 0 mm 0 m/s 730 mmHg 41%
    07:00 +27°C° 0 mm 0 m/s 730 mmHg 38%
    08:00 +28°C° 0 mm 0 m/s 731 mmHg 35%
    09:00 +31°C° 0 mm 0 m/s 731 mmHg 31%
    10:00 +36°C° 0 mm 1 m/s 731 mmHg 27%
    11:00 +40°C° 0 mm 1 m/s 730 mmHg 23%
    12:00 +41°C° 0 mm 1 m/s 730 mmHg 22%
    13:00 +41°C° 0 mm 1 m/s 729 mmHg 21%
    14:00 +42°C° 0 mm 1 m/s 728 mmHg 20%
    15:00 +41°C° 0 mm 1 m/s 727 mmHg 21%
    16:00 +40°C° 0 mm 1 m/s 727 mmHg 22%
    17:00 +37°C° 0 mm 1 m/s 727 mmHg 23%
    18:00 +35°C° 0 mm 1 m/s 728 mmHg 28%
    19:00 +33°C° 0 mm 1 m/s 729 mmHg 33%
    20:00 +31°C° 0 mm 1 m/s 729 mmHg 38%
    21:00 +30°C° 0 mm 1 m/s 729 mmHg 41%
    22:00 +29°C° 0 mm 1 m/s 729 mmHg 44%
    23:00 +28°C° 0 mm 1 m/s 730 mmHg 48%

    26 Februarie, Marţi

    Timp Temperatura Precipitaţii Vânt Presiune Umiditate
    00:00 +28°C° 0 mm 1 m/s 729 mmHg 49%
    01:00 +28°C° 0 mm 1 m/s 729 mmHg 50%
    02:00 +27°C° 0 mm 1 m/s 729 mmHg 52%
    03:00 +27°C° 0 mm 1 m/s 729 mmHg 52%
    04:00 +26°C° 0 mm 1 m/s 729 mmHg 53%
    05:00 +26°C° 0 mm 1 m/s 730 mmHg 54%
    06:00 +26°C° 0 mm 0 m/s 730 mmHg 49%
    07:00 +28°C° 0 mm 0 m/s 731 mmHg 44%
    08:00 +29°C° 0 mm 0 m/s 731 mmHg 40%
    09:00 +32°C° 0 mm 0 m/s 731 mmHg 34%
    10:00 +35°C° 0 mm 0 m/s 731 mmHg 29%
    11:00 +40°C° 0 mm 1 m/s 731 mmHg 24%
    12:00 +41°C° 0 mm 1 m/s 730 mmHg 22%
    13:00 +41°C° 0 mm 1 m/s 729 mmHg 20%
    14:00 +42°C° 0 mm 1 m/s 728 mmHg 19%
    15:00 +41°C° 0 mm 1 m/s 728 mmHg 20%
    16:00 +40°C° 0 mm 1 m/s 728 mmHg 21%
    17:00 +37°C° 0 mm 1 m/s 728 mmHg 22%
    18:00 +35°C° 0 mm 1 m/s 728 mmHg 28%
    19:00 +33°C° 0 mm 1 m/s 729 mmHg 34%
    20:00 +30°C° 0 mm 1 m/s 729 mmHg 40%
    21:00 +30°C° 0 mm 1 m/s 730 mmHg 43%
    22:00 +29°C° 0 mm 1 m/s 730 mmHg 46%
    23:00 +28°C° 0 mm 1 m/s 730 mmHg 49%

    27 Februarie, Miercuri

    Timp Temperatura Precipitaţii Vânt Presiune Umiditate
    00:00 +28°C° 0 mm 1 m/s 730 mmHg 49%
    01:00 +27°C° 0 mm 1 m/s 729 mmHg 50%
    02:00 +27°C° 0 mm 1 m/s 729 mmHg 51%
    03:00 +27°C° 0 mm 1 m/s 729 mmHg 52%
    04:00 +26°C° 0 mm 1 m/s 730 mmHg 52%
    05:00 +26°C° 0 mm 1 m/s 730 mmHg 53%
    06:00 +26°C° 0 mm 0 m/s 730 mmHg 48%
    07:00 +27°C° 0 mm 0 m/s 731 mmHg 44%
    08:00 +29°C° 0 mm 0 m/s 732 mmHg 40%
    09:00 +32°C° 0 mm 0 m/s 731 mmHg 34%
    10:00 +36°C° 0 mm 1 m/s 731 mmHg 28%
    11:00 +40°C° 0 mm 1 m/s 731 mmHg 23%
    12:00 +40°C° 0 mm 1 m/s 730 mmHg 21%
    13:00 +41°C° 0 mm 1 m/s 729 mmHg 19%
    14:00 +41°C° 0 mm 1 m/s 728 mmHg 18%
    15:00 +40°C° 0 mm 1 m/s 728 mmHg 19%
    16:00 +39°C° 0 mm 1 m/s 727 mmHg 20%
    17:00 +37°C° 0 mm 1 m/s 727 mmHg 21%
    18:00 +35°C° 0 mm 1 m/s 728 mmHg 25%
    19:00 +33°C° 0 mm 1 m/s 728 mmHg 30%
    20:00 +30°C° 0 mm 2 m/s 729 mmHg 35%
    21:00 +30°C° 0 mm 2 m/s 729 mmHg 37%
    22:00 +29°C° 0 mm 1 m/s 729 mmHg 39%
    23:00 +28°C° 0 mm 1 m/s 729 mmHg 40%
    Arată mai mult